GALAXY 3C (G-3C)

Last updated on Tue Jul 01 2025 00:02:44 GMT+0000 (Coordinated Universal Time)

1 27445U 02030A 25181.54902762 -.00000154 00000+0 00000+0 0 9998 2 27445 2.8282 82.4259 0003120 45.9673 253.2630 1.00271959 42962
UTC large
Height (km)
Speed (km/s)
/
Latitude / Longitude
Inclination (degrees)
Orbital Period (minutes)
Azimuth
Elevation
Range (km)
Doppler Factor

Next 0 passes for location: London (51.5072 / 0.1276)

Sorry there are no passes over London.